Powrót do katalogu

CZ-6A DEB

AktywnyPO
NORAD 60787·DEBRIS·🇨🇳 China

Wystrzelony Aug 6, 2024 z Taiyuan Satellite Launch Center

Loading…

Następne Przeloty (najbliższe 24 godziny)

TLE

ŚwieżeSource: Space-Track

Epoka: Sep 14, 2026, 01:43 UTC

1 60787U 24140FN  26257.07203880  .00000445  00000-0  20090-3 0  9996
2 60787  88.9671 262.1413 0053164 291.2102  68.3413 14.19785197108202

Śledź CZ-6A DEB w czasie rzeczywistym z AllMySat

Download on the App Store